Location: ????????
(55.6189°N, 38.3031°E)
Time: 20:56:10
(UTC+00:00)

SL-16 R/B - Pass Details

Date: 15 November 2019
Orbit: 839 x 850 km, 71.0° (Epoch: 11 December)

Event Time Altitude Azimuth Distance (km) Brightness Sun altitude
Exits shadow 03:08:21 - 330° (NNW) 2,555 4.3 -15.5°
Reaches altitude 10° 03:08:36 10° 331° (NNW) 2,488 4.3 -15.5°
Maximum altitude 03:12:52 21° 20° (NNE) 1,832 4.0 -14.9°
Drops below altitude 10° 03:17:07 10° 68° (ENE) 2,486 5.5 -14.3°
Sets 03:20:12 0° 85° (E) 3,420 6.9 -13.9°
